This is the latest recevied weather packets stored in our database for station/object IW1CBG-23. If no packets are shown the sender has not sent any weather packets the latest 10 day(s).
| Time | Temp. | Humidity | Pressure | Rain* | Wind** | Luminosity | Snow |
|---|---|---|---|---|---|---|---|
| 1777669119 | 10° C | 85% | 1021.3 hPa | - | - | - | - |
| 1777667881 | 10° C | 88% | 1021.2 hPa | - | - | - | - |
| 1777666644 | 10° C | 91% | 1021.1 hPa | - | - | - | - |
| 1777665406 | 9.44° C | 92% | 1020.9 hPa | - | - | - | - |
| 1777662931 | 9.44° C | 97% | 1020.7 hPa | - | - | - | - |
| 1777661693 | 8.89° C | 98% | 1020.6 hPa | - | - | - | - |
| 1777660455 | 8.89° C | 95% | 1020.4 hPa | - | - | - | - |
| 1777659219 | 8.89° C | 88% | 1020.3 hPa | - | - | - | - |
| 1777657983 | 10° C | 81% | 1020.3 hPa | - | - | - | - |
| 1777656746 | 10° C | 75% | 1020.1 hPa | - | - | - | - |
| 1777655510 | 11.11° C | 70% | 1020 hPa | - | - | - | - |
| 1777654274 | 11.11° C | 67% | 1020 hPa | - | - | - | - |
| 1777653037 | 12.22° C | 64% | 1020.1 hPa | - | - | - | - |
| 1777651800 | 12.78° C | 62% | 1020.3 hPa | - | - | - | - |
| 1777650563 | 12.78° C | 61% | 1020.3 hPa | - | - | - | - |
| 1777649325 | 13.33° C | 59% | 1020.5 hPa | - | - | - | - |
| 1777648088 | 13.33° C | 60% | 1020.5 hPa | - | - | - | - |
| 1777646852 | 13.89° C | 60% | 1020.7 hPa | - | - | - | - |
| 1777645616 | 13.89° C | 61% | 1020.7 hPa | - | - | - | - |
| 1777644379 | 13.89° C | 60% | 1020.8 hPa | - | - | - | - |
| 1777641903 | 13.33° C | 57% | 1021.1 hPa | - | - | - | - |
| 1777640666 | 13.33° C | 57% | 1021.3 hPa | - | - | - | - |
| 1777639427 | 12.22° C | 58% | 1021.6 hPa | - | - | - | - |
| 1777638190 | 12.22° C | 61% | 1021.8 hPa | - | - | - | - |
| 1777636952 | 11.67° C | 60% | 1021.8 hPa | - | - | - | - |
* Rain since midnight (hover to see other rain measurements)
** Current wind speed in m/s (hover to see current wind gust speed)